Погода в Грачевке

Россия / Оренбургская область     52°14′30″N   51°42′57″E
темп.,
°C
ветер,
м/с
пор.,
м/с
влажн.,
%
обл.,
%
осадки,
мм/ч
давл.,
гПа
погр.,
м
15 апреля, чт
чт1523:00+11вюв411750 0.0 1025197
02:00+9вюв410770 0.0 1023156
05:00+9юв38811 0.0 1023111
08:00+9юв410740 0.0 1023200
11:00+15ююв694883 0.0 1022444
14:00+19ююв67349 0.0 1021955
17:00+20ююв5730100 0.0 10191549
20:00+16вюв334872 0.0 101924
16 апреля, пт
пт1623:00+12вюв345689 0.0 101949
02:00+11вюв3462100 0.0 101856
05:00+9в336332 0.0 101824
08:00+10всв346351 0.0 101882
11:00+16в464695 0.0 1018412
14:00+20в553476 0.0 10171309
17:00+20всв4331100 0.0 10172131
20:00+16св344898 0.0 101760
17 апреля, сб
сб1723:00+13св3458100 0.0 101850
02:00+11св356287 0.0 101874
05:00+9св486830 0.0 1019136
08:00+9св5117868 0.0 1019257
11:00+14св796321 0.0 1019530
14:00+17св774821 0.0 10191179
17:00+18св67445 0.0 10191625
20:00+15ссв510593 0.0 1018290
18 апреля, вс
вс1823:00+11ссв612711 0.0 1020369
02:00+8св612622 0.0 1020318
05:00+6св612642 0.0 1020329
08:00+6св612651 0.0 1021386
11:00+10св810460 0.0 1020745
14:00+13св88370 0.0 10201264
17:00+14св89360 0.0 10201576
20:00+11св711505 0.0 1021550
19 апреля, пн
пн1923:00+7св914585 0.0 1023755
02:00+4св8144814 0.0 1024659
05:00+2св8145486 0.0 1025606
08:00+4всв91258100 0.0 1026874
11:00+5всв10124588 0.0 10281225
14:00+7всв9103343 0.0 10291863
17:00+8всв910290 0.0 10301978
20:00+6всв610370 0.0 1031545